Theta_e
316 316 316 316 316 317 317 317 317 318 318 318 319 319 319 319 319 320 320 320 320 320 320 320 320 319 319 319 319 319 319 314 312 310 311 312 323 328 342 343 341 339 341 346 336 332 325 324 323 327 329 331 331 330 338 340 342 338 325 321 317 319 318 322 321 321 323 323 327 330 330 327 325 331 332 336 335 335 336 336 338 341 340 342 343 346 345 346
316 316 316 316 315 316 316 317 317 317 318 317 318 318 319 319 319 319 320 320 320 320 320 320 320 319 319 319 319 319 317 314 309 309 309 320 336 334 336 347 350 341 342 331 328 326 322 320 320 323 324 325 335 330 338 335 343 331 323 321 317 319 323 327 327 328 323 323 326 329 330 328 327 330 332 330 330 332 331 333 335 335 338 341 344 345 345 345
316 316 316 316 317 317 317 317 317 317 318 318 318 318 319 319 319 319 319 320 319 320 320 320 319 319 319 319 320 320 315 311 312 309 314 337 333 339 341 341 351 345 326 325 331 324 322 321 320 321 320 322 329 328 335 333 336 335 323 317 320 324 326 328 329 328 327 327 326 327 329 329 329 330 332 330 329 331 329 329 331 332 333 337 340 342 343 344
316 316 317 317 317 317 317 317 318 318 318 318 318 318 318 319 318 319 319 319 319 319 319 319 319 319 319 320 320 318 314 311 308 313 320 340 344 338 343 340 348 348 323 324 331 326 325 324 322 321 319 318 323 329 327 332 328 330 325 319 320 325 323 326 329 330 328 327 326 327 328 326 328 330 329 327 327 328 331 334 332 331 334 336 339 341 342 342
317 317 317 317 316 317 317 318 317 317 318 318 318 318 318 318 318 319 319 319 319 319 319 319 319 319 320 320 320 317 309 301 307 320 321 353 353 343 341 339 348 339 325 323 322 326 326 322 321 320 319 316 320 324 325 330 334 328 324 327 326 326 323 328 329 330 328 327 326 326 324 326 330 329 328 329 325 325 331 335 336 336 337 337 338 340 341 341
316 317 316 317 317 317 317 317 318 318 318 317 317 318 318 318 318 318 319 319 319 319 319 320 320 320 321 321 317 314 308 296 312 316 364 357 357 349 341 341 346 334 327 320 318 319 319 321 320 316 316 316 318 316 322 327 332 322 324 325 328 328 324 328 329 329 328 325 325 324 327 328 327 326 329 330 328 332 339 339 338 338 339 340 341 341 340 340
316 317 316 317 317 316 317 317 317 317 317 317 317 317 317 317 317 317 318 318 318 318 319 320 320 320 321 321 316 313 308 306 313 316 357 358 355 351 344 342 348 330 323 318 316 314 314 314 319 316 315 315 316 318 320 324 329 326 320 323 323 327 325 328 328 329 327 325 324 327 329 326 326 323 328 329 332 337 339 340 339 339 340 341 339 340 340 340
316 316 316 316 316 316 317 317 317 317 317 317 318 318 317 317 317 317 318 318 318 319 319 319 320 321 322 315 312 307 306 303 311 316 335 351 350 348 342 334 335 325 319 316 315 313 313 311 312 318 314 312 314 316 320 319 324 323 322 324 323 325 327 328 328 326 326 326 328 328 325 324 327 326 328 327 333 338 339 340 339 339 339 339 339 339 339 340
315 316 316 316 316 316 316 317 317 317 317 317 317 317 317 317 316 317 317 318 318 319 319 319 320 322 321 314 310 304 303 314 316 317 320 339 343 339 332 331 329 321 318 316 315 314 312 310 311 314 311 313 317 315 318 318 316 324 324 325 324 323 328 329 326 325 327 327 327 325 324 325 328 330 326 328 335 338 340 339 339 338 338 338 338 339 338 339
315 316 316 316 316 316 316 316 317 317 317 317 316 316 316 316 316 317 317 317 318 318 319 320 320 322 319 314 310 297 307 318 322 321 326 340 337 331 330 331 327 320 316 315 314 312 310 311 312 315 314 316 318 315 319 319 318 325 324 324 323 323 324 328 325 324 325 326 326 323 323 324 328 327 319 331 336 338 338 337 338 337 336 337 338 338 339 339
315 316 316 316 316 316 316 316 316 316 316 316 316 315 315 316 316 316 316 317 318 318 319 319 322 321 314 312 303 296 312 318 318 321 329 337 332 328 327 330 326 319 317 315 313 313 313 312 313 316 315 313 318 316 318 320 325 324 323 322 322 323 324 325 324 324 325 323 325 326 323 325 326 327 323 332 336 337 335 335 336 336 336 336 337 337 338 339
315 315 316 316 316 316 315 316 316 316 316 315 315 315 315 315 315 316 316 317 318 319 320 321 323 319 316 311 305 304 318 318 318 316 319 334 329 329 329 330 325 320 316 313 313 313 313 313 312 311 310 319 312 317 316 323 323 321 320 314 316 320 320 323 321 324 325 323 327 326 322 319 321 322 328 334 336 335 334 333 334 334 335 335 336 336 337 338
315 315 315 315 315 315 316 316 316 316 315 314 314 315 315 315 314 315 317 317 319 319 320 324 323 319 313 302 307 315 317 317 316 316 316 317 319 324 327 329 324 321 318 314 312 313 314 313 312 308 311 312 315 311 318 321 320 321 319 315 313 313 314 321 323 324 323 325 326 325 309 312 317 325 331 335 334 334 332 331 333 333 334 334 335 335 336 338
315 315 315 315 315 315 316 316 315 315 314 314 314 313 313 313 315 316 318 319 321 320 321 324 321 318 313 307 315 319 321 319 319 317 317 320 318 318 323 325 324 320 319 315 315 315 314 314 313 311 313 310 311 322 317 317 318 311 315 315 308 305 305 317 321 322 321 326 325 325 309 311 317 326 332 334 335 333 330 331 331 332 333 333 334 334 335 338
315 315 315 315 315 315 315 315 314 313 314 313 313 312 312 311 315 318 322 324 322 322 322 324 320 315 308 308 320 322 335 328 319 318 319 318 317 316 319 320 320 319 318 316 315 316 316 315 313 309 307 314 315 314 311 308 310 311 306 304 305 305 305 313 321 321 318 323 326 321 310 312 319 326 332 334 334 333 330 330 331 331 331 332 333 333 335 336
314 314 315 314 315 315 315 314 313 313 313 312 311 311 313 313 318 322 324 321 324 324 324 318 315 314 310 303 313 330 329 320 321 324 324 321 318 315 319 317 319 318 317 316 318 318 316 314 309 309 309 313 312 308 304 302 304 307 304 301 302 304 306 310 315 319 322 322 324 320 310 313 320 328 332 334 333 332 330 330 330 331 331 332 332 333 334 335
314 314 314 314 315 315 314 313 312 313 311 311 310 312 313 317 322 322 324 324 324 325 321 314 316 317 302 315 323 316 313 319 325 323 322 323 321 320 317 315 314 315 316 316 315 315 315 313 315 314 314 310 309 306 299 297 298 300 304 301 304 305 306 304 312 316 318 318 316 320 315 311 321 327 330 332 333 331 330 329 330 331 331 332 332 333 333 333
314 314 314 315 315 315 314 312 312 312 311 310 310 310 309 315 321 323 324 322 321 318 318 319 317 311 304 314 308 312 317 314 313 312 316 322 321 319 317 313 314 314 313 310 313 309 312 307 311 305 308 308 304 301 298 296 299 299 300 300 301 305 306 307 307 312 315 316 313 316 315 313 322 326 329 331 332 331 330 330 331 331 331 332 332 332 333 333
314 314 314 314 314 313 313 312 311 310 310 310 311 315 317 322 317 314 313 317 301 296 294 307 308 293 291 304 312 310 310 312 311 311 311 317 319 319 318 316 314 311 306 305 306 308 309 307 309 302 301 304 304 303 301 302 305 303 303 302 303 302 304 304 310 315 315 311 311 311 312 314 321 323 327 329 331 329 330 331 331 331 331 331 331 332 332 333
314 314 314 313 313 313 312 312 310 309 309 307 306 306 306 297 295 298 311 301 296 296 296 297 310 308 306 305 304 307 308 309 306 309 312 318 317 315 313 313 311 311 307 303 305 307 310 302 300 300 302 304 306 305 303 304 305 305 305 305 303 304 305 309 309 312 316 310 310 311 312 316 320 322 325 327 328 328 328 328 329 330 330 331 331 331 332 333
314 314 314 313 312 312 312 311 310 309 309 306 306 300 294 295 291 289 295 297 299 300 298 299 299 299 299 303 304 303 300 302 308 307 308 318 317 312 309 309 306 303 305 307 304 309 308 301 301 304 305 304 305 306 304 303 304 304 303 303 303 304 303 308 309 312 313 310 307 311 311 317 319 322 324 327 326 325 326 326 328 329 330 331 330 331 332 333
314 314 313 312 311 311 311 310 309 309 308 305 305 299 299 300 300 302 298 292 298 300 300 300 302 300 303 303 304 305 304 299 300 303 309 312 312 307 307 307 304 301 305 305 304 302 301 299 303 306 307 306 304 304 304 303 302 302 301 301 300 301 305 308 309 311 311 310 306 310 309 312 319 322 324 325 325 326 327 327 328 328 328 330 330 331 332 333
314 314 313 312 311 310 310 309 308 307 307 305 302 301 300 303 305 305 301 296 294 300 299 299 297 298 299 303 304 307 299 297 295 301 306 312 308 308 307 304 303 303 304 304 300 298 296 300 304 307 308 306 304 304 303 303 303 301 300 298 297 302 301 299 307 308 310 309 305 309 308 309 319 322 323 325 325 326 328 328 328 330 328 330 331 332 332 332
314 314 313 311 311 310 309 308 307 305 305 305 305 301 305 305 305 304 298 290 290 296 299 301 300 299 299 298 304 302 298 299 299 298 307 308 305 309 306 305 303 303 301 303 302 300 299 303 307 307 307 307 305 304 302 301 299 302 301 300 299 301 303 303 304 306 308 309 311 310 308 306 313 317 319 323 326 326 326 327 327 329 330 332 333 333 333 332
314 313 313 312 310 310 307 307 299 302 306 307 303 306 306 305 305 303 296 291 291 293 303 306 305 303 304 309 307 300 300 300 301 304 309 309 306 306 305 309 306 302 304 304 303 302 302 307 307 306 306 306 305 304 304 301 298 300 303 302 302 303 303 305 306 304 301 298 306 310 300 301 307 316 318 320 322 322 324 324 324 326 328 330 331 331 333 334
313 312 313 311 311 309 307 299 299 305 305 304 304 307 307 305 305 304 296 287 285 294 304 297 305 298 307 302 305 303 302 295 302 304 307 308 311 308 307 304 307 302 306 305 303 303 304 308 307 305 304 305 305 304 306 305 299 297 300 305 304 304 304 305 304 303 294 294 301 311 302 297 304 309 316 318 319 320 323 323 324 325 326 328 330 332 332 333
313 312 311 310 310 308 301 298 303 306 302 302 307 309 308 304 305 302 292 285 285 299 296 301 303 299 304 302 303 304 287 291 303 304 304 309 306 312 304 302 304 306 309 309 304 301 307 307 307 306 305 304 303 302 306 306 302 298 304 305 305 303 303 303 304 301 296 303 305 308 308 300 299 304 315 317 317 319 320 322 323 325 326 327 330 331 332 333
312 311 310 309 308 308 302 302 303 303 304 307 310 310 308 304 303 300 290 281 282 300 292 297 300 306 303 303 304 298 296 300 296 301 304 306 308 305 304 301 301 300 306 306 297 305 307 305 306 305 303 303 302 305 308 308 304 302 306 307 305 305 304 304 304 301 300 298 295 298 307 301 298 305 311 316 314 316 318 321 322 324 326 327 329 331 332 334
310 310 310 309 308 307 306 303 304 303 308 309 310 309 307 304 301 292 286 279 296 294 306 295 308 303 300 302 300 300 300 302 295 301 307 307 309 307 300 303 303 301 304 305 301 303 308 308 308 308 305 301 305 307 308 308 304 307 307 307 308 308 307 306 303 301 300 296 293 297 302 297 294 301 304 314 313 315 318 321 322 324 325 327 328 330 332 334
310 309 310 309 306 306 304 305 304 309 310 310 309 309 305 301 294 288 283 277 294 287 297 298 297 293 298 295 295 298 297 300 302 303 304 303 305 307 306 309 304 302 301 303 303 305 305 313 313 309 306 307 306 308 309 308 309 309 308 305 303 302 305 305 302 299 296 291 294 299 301 299 291 298 304 308 311 317 319 321 323 325 326 328 329 330 332 333
309 308 308 308 302 306 306 303 307 309 309 311 312 305 299 294 289 281 277 285 294 293 297 295 293 298 293 292 290 297 296 298 298 299 297 304 302 304 304 301 305 300 297 297 298 302 304 304 307 309 313 311 308 305 309 310 310 307 303 303 300 297 299 297 297 298 291 288 295 300 299 300 291 292 301 311 317 319 321 319 321 323 325 327 328 330 332 333
307 306 308 306 307 310 303 303 309 311 312 312 305 299 292 282 285 278 280 297 284 289 289 289 294 293 293 294 293 293 292 295 297 297 294 295 296 297 299 294 297 291 292 293 292 299 298 300 304 306 316 311 308 304 303 307 308 306 301 300 295 289 292 287 292 290 289 288 294 297 299 295 293 296 303 307 311 317 322 323 322 324 325 327 328 330 332 334
306 306 306 308 312 308 309 311 312 312 312 308 300 295 286 281 275 284 284 289 284 292 289 295 291 291 292 292 291 294 296 291 296 296 297 298 296 297 301 301 299 297 290 294 292 292 295 301 302 303 305 313 309 302 298 299 303 303 299 296 292 288 287 284 286 290 288 292 297 296 298 294 294 299 303 306 309 315 322 324 324 325 326 327 329 330 332 334
306 306 305 310 310 311 313 314 314 313 311 303 297 292 289 279 281 294 286 287 287 293 293 290 291 292 292 288 291 294 289 294 294 294 296 293 295 293 296 301 301 297 297 293 292 292 287 288 297 301 297 306 308 305 303 300 302 302 304 299 296 293 289 286 285 287 287 286 291 297 294 290 294 296 303 306 307 317 321 324 325 326 328 329 330 331 332 333
306 306 307 309 310 313 313 314 314 314 302 298 293 287 281 280 285 283 284 286 289 291 288 292 289 290 289 291 293 294 292 288 294 293 293 291 290 294 292 295 299 300 299 292 296 294 293 292 299 303 303 305 305 308 307 304 302 304 304 303 295 295 294 289 288 288 290 291 292 293 292 293 297 301 306 307 306 315 321 322 324 324 327 329 329 329 331 332
305 306 309 307 311 313 314 311 308 302 299 295 289 284 281 286 282 288 286 292 290 287 288 289 289 286 287 288 292 291 295 290 292 292 291 292 293 293 297 296 296 297 292 288 293 290 294 292 301 302 305 304 305 308 307 307 295 300 302 297 299 301 300 295 299 296 296 292 290 294 296 297 298 300 302 305 306 307 319 321 322 322 325 327 328 329 330 331
303 306 305 308 310 313 314 313 306 301 298 293 287 282 287 290 291 289 293 289 289 289 287 281 284 284 284 284 287 290 290 293 291 290 286 293 290 295 295 296 299 297 297 295 292 298 291 292 299 301 300 304 307 307 308 308 303 300 298 300 303 305 302 297 288 291 290 285 288 294 293 292 294 291 301 303 302 303 316 320 322 323 325 326 327 329 330 331
302 303 307 308 311 312 311 310 307 299 296 291 286 292 294 287 293 291 292 291 291 290 285 283 285 288 284 284 285 288 290 288 288 290 287 291 287 299 294 293 298 297 297 299 293 295 298 290 297 302 302 305 307 306 304 308 308 304 303 305 302 292 294 295 293 288 286 286 286 290 294 294 293 293 298 300 301 302 308 320 321 322 324 326 327 329 331 332
303 302 300 308 310 310 310 311 305 298 292 288 286 288 295 291 293 292 293 292 292 289 284 287 284 288 286 284 287 289 290 285 289 287 286 289 285 295 294 295 294 297 298 298 295 297 300 290 294 302 302 303 304 303 296 300 306 307 305 304 303 298 296 291 295 292 291 286 289 287 292 289 297 297 299 301 303 304 302 319 321 323 325 327 327 329 330 331
300 298 297 309 308 310 311 308 300 294 291 286 286 289 291 290 293 293 292 293 290 287 287 286 288 284 286 287 288 286 290 289 288 288 288 290 289 297 294 298 294 295 297 299 297 301 296 299 288 298 303 302 296 300 299 301 299 300 299 298 301 301 300 299 297 294 290 287 285 286 287 290 297 303 304 305 305 305 304 319 322 324 326 328 328 329 331 332
301 297 298 306 308 310 307 300 291 290 288 290 292 291 292 292 293 294 295 294 292 294 289 288 287 284 286 285 287 290 288 288 289 287 289 290 290 287 296 295 296 293 296 296 295 298 295 294 289 295 296 295 297 302 304 304 304 302 299 296 300 298 293 293 290 298 295 292 285 288 288 292 302 308 306 306 307 308 307 317 323 324 326 328 329 330 331 332
295 288 293 305 309 308 301 291 290 293 289 289 288 292 291 299 293 293 293 294 294 290 295 291 290 289 287 288 287 288 288 287 289 288 290 288 293 292 295 298 297 297 294 290 292 299 299 296 292 290 294 296 301 304 306 307 306 305 303 299 301 300 296 293 288 290 295 293 299 294 289 293 303 308 308 308 308 308 308 313 323 325 326 328 329 331 332 333
294 291 302 307 307 304 297 288 294 292 288 292 296 295 295 294 292 294 292 293 291 293 290 290 289 287 290 288 288 288 289 287 289 288 290 291 292 294 297 297 298 296 296 293 296 300 305 296 292 294 298 302 306 307 307 307 306 303 304 302 301 299 300 297 294 292 292 293 292 291 290 292 304 307 309 308 309 309 309 309 323 326 327 328 329 330 331 332
296 296 298 306 306 303 294 286 287 288 292 295 294 293 296 294 293 292 292 293 291 291 289 290 291 293 288 290 288 287 291 285 291 289 289 292 290 298 297 297 298 294 294 292 292 299 290 293 290 288 289 293 297 300 301 305 304 302 301 303 302 302 301 298 299 296 294 293 294 289 287 291 302 311 310 309 310 309 306 310 323 325 326 328 329 330 331 332
297 299 300 300 304 301 292 293 290 288 290 291 291 291 291 293 295 295 293 292 294 292 291 289 291 291 290 291 290 291 292 290 287 292 292 291 292 298 297 297 297 295 297 299 304 301 292 291 289 284 283 284 286 286 288 293 295 299 303 304 303 301 299 297 294 294 289 294 296 292 289 296 302 305 306 307 306 307 307 312 323 327 327 327 328 330 331 331
290 284 293 294 297 297 296 298 295 292 290 290 289 291 292 290 294 296 295 293 294 293 292 292 291 292 291 290 288 288 289 292 289 288 290 289 292 294 296 296 297 296 300 304 302 298 293 293 292 291 288 286 289 292 297 300 300 297 301 302 302 303 301 300 296 292 291 292 294 294 297 298 301 302 304 308 306 305 311 317 321 324 326 328 328 329 330 331
294 288 289 286 293 293 291 294 292 293 290 293 287 291 289 291 292 293 296 290 294 293 292 292 291 289 289 289 287 287 289 288 291 289 289 289 292 293 296 296 297 299 303 300 301 297 293 288 290 292 292 292 294 294 296 298 296 299 300 301 303 302 301 299 297 295 296 295 290 297 299 299 299 301 304 306 308 306 313 319 321 323 325 326 327 328 338 330
286 292 293 294 287 285 287 288 291 290 293 294 290 293 290 290 290 288 293 294 294 295 289 292 291 292 290 289 288 285 287 287 288 286 291 290 290 292 292 295 295 300 299 295 299 295 290 286 291 292 290 291 293 295 297 299 301 302 302 302 301 303 301 298 297 298 300 295 293 297 300 300 301 303 304 307 306 312 316 319 323 324 325 326 326 327 328 328
294 294 293 297 288 290 290 290 292 291 292 295 292 292 289 289 288 291 290 290 292 291 292 285 289 290 290 291 289 285 286 282 284 290 288 289 289 290 289 292 295 296 294 292 294 296 292 287 292 292 289 290 293 296 300 299 301 302 302 302 302 302 302 301 300 301 302 299 300 302 303 302 304 304 306 308 310 315 319 320 322 323 324 325 325 326 327 328
293 289 289 296 294 291 291 292 292 292 289 294 289 290 290 289 288 291 292 290 287 289 293 289 289 290 291 290 290 286 288 289 288 286 290 289 289 292 290 291 291 295 294 291 292 295 291 287 294 290 288 289 293 298 298 298 298 299 301 302 302 301 302 303 301 301 304 302 302 306 304 303 305 305 308 313 313 317 319 321 321 323 324 325 324 325 326 327
300 300 298 292 287 290 292 291 290 290 287 289 288 291 291 291 289 291 289 294 291 289 291 289 291 290 291 290 290 289 293 292 292 291 292 291 286 292 290 291 293 289 291 290 291 292 292 287 291 289 285 286 294 294 295 297 298 299 299 301 302 301 300 301 301 301 301 300 301 305 303 301 305 310 313 313 314 315 314 317 321 322 324 324 324 324 325 325
303 303 302 295 287 292 288 291 291 289 283 290 292 292 291 291 293 293 289 294 295 295 293 293 292 290 289 289 288 291 294 294 294 295 294 295 295 294 294 294 294 291 290 290 292 290 290 288 286 286 283 284 291 293 293 295 296 295 298 300 302 304 304 304 305 305 303 303 299 301 302 305 306 312 311 311 311 310 311 313 315 320 324 324 323 324 325 325
Wind_Speed
21 22 23 22 21 22 22 21 21 21 22 21 21 21 21 21 21 21 21 20 20 18 17 17 17 17 17 16 16 15 11 8 7 4 6 22 9 20 10 10 10 20 16 5 9 11 8 9 8 9 9 8 6 6 9 10 8 5 5 4 6 7 4 4 3 1 8 10 9 12 10 8 6 6 5 10 14 13 12 8 8 11 9 11 17 18 20 19
22 21 20 20 20 20 20 21 21 21 21 21 21 20 20 19 20 20 20 21 20 19 17 17 16 16 16 15 14 13 9 7 10 10 21 9 17 20 20 11 7 19 15 3 13 13 11 10 10 11 9 8 6 7 7 6 10 8 3 5 10 4 7 4 3 3 4 7 12 13 12 9 9 7 6 10 13 14 11 10 12 12 14 16 18 20 19 18
20 20 22 22 21 21 21 22 21 21 21 22 21 21 20 21 20 19 20 20 20 19 17 16 15 14 14 14 11 9 6 5 6 13 21 26 21 21 20 17 9 19 16 11 12 13 14 15 11 11 8 6 8 9 10 7 8 10 6 7 10 8 7 7 6 8 3 12 11 10 10 11 7 9 5 10 16 15 15 13 13 16 18 19 19 21 20 17
22 23 22 21 21 21 22 22 22 22 21 21 21 20 20 20 20 19 19 19 19 18 17 16 15 13 12 11 10 5 4 4 5 8 7 10 20 24 22 23 16 17 14 8 11 11 8 7 9 11 7 8 7 9 8 10 5 5 8 9 10 7 7 11 9 10 5 7 10 9 5 7 10 10 8 9 14 11 13 17 22 21 22 21 21 20 19 18
23 22 23 23 23 23 23 23 22 22 22 22 21 21 22 20 20 20 19 19 18 17 16 15 14 11 9 9 7 1 1 4 5 4 9 6 13 23 24 23 19 14 15 8 7 7 9 10 10 10 7 8 7 6 13 10 10 3 11 12 13 3 5 14 8 8 7 6 8 12 9 9 5 11 6 12 16 12 14 15 18 24 24 24 22 20 18 19
25 23 23 23 24 24 24 24 24 23 23 21 20 20 20 20 20 19 19 19 18 15 15 14 13 10 9 5 3 3 1 1 2 6 5 8 4 21 25 23 23 14 11 9 10 10 9 9 11 10 7 6 10 10 8 13 9 9 8 11 13 12 9 6 8 8 8 6 8 7 10 7 7 8 8 12 15 11 14 18 20 24 25 25 23 22 20 19
25 25 24 25 25 24 25 25 24 24 23 23 24 21 19 19 19 19 19 17 17 15 13 12 11 8 7 4 1 2 1 10 6 8 9 11 3 17 24 22 20 15 12 11 9 9 11 10 12 11 8 8 8 12 12 8 13 11 9 9 12 12 14 13 9 8 9 9 9 9 6 10 7 8 4 9 8 17 16 19 20 20 20 20 21 22 22 20
25 25 25 25 26 25 25 26 25 25 24 24 22 21 21 20 19 19 18 17 16 15 12 11 9 5 4 2 2 1 2 10 18 14 15 4 9 16 22 17 17 15 14 15 14 13 12 13 14 11 9 11 5 12 10 12 11 13 13 13 12 9 12 13 10 6 8 10 7 4 3 8 14 7 7 10 14 18 18 18 19 19 20 19 20 20 18 18
25 25 26 26 27 27 27 27 26 25 25 24 23 22 22 21 19 18 17 16 16 15 14 9 7 3 2 1 2 4 9 9 5 6 2 7 13 15 18 12 13 16 15 12 13 14 12 13 11 12 8 12 10 10 11 8 9 13 16 13 11 9 9 11 8 8 10 6 7 7 8 7 14 9 11 11 17 20 20 19 20 20 20 20 20 19 18 18
27 27 26 27 27 27 28 27 27 27 27 25 23 23 22 22 19 16 17 16 17 15 12 9 7 7 4 2 2 1 9 6 3 7 5 11 14 18 16 17 16 14 11 12 9 10 13 9 14 11 7 8 10 12 9 11 10 7 13 14 14 14 9 9 10 10 8 5 8 9 8 5 11 11 3 11 19 21 21 21 21 22 21 20 18 18 17 20
27 26 27 27 27 28 27 27 27 27 27 26 26 25 23 22 20 16 16 17 16 14 8 5 6 5 5 3 5 9 5 1 4 10 6 12 14 15 11 15 17 14 14 12 13 15 12 8 8 5 8 7 7 12 11 10 12 11 11 9 15 18 14 9 11 13 8 5 9 9 10 6 7 5 10 16 20 23 23 22 22 20 20 19 19 18 15 17
27 27 26 27 28 28 30 30 27 27 26 27 27 26 24 24 22 17 16 16 15 11 7 8 10 5 1 2 7 11 3 1 4 5 6 2 9 13 14 16 19 17 15 13 14 13 11 11 8 7 5 6 10 2 10 14 12 11 10 11 11 10 14 14 12 12 12 8 10 10 7 6 11 10 14 20 21 22 24 23 23 21 19 18 18 16 14 17
27 28 28 27 28 29 28 28 28 27 27 26 26 23 24 25 25 16 14 14 7 4 6 8 8 4 4 2 14 18 14 13 12 13 14 4 7 4 7 15 18 17 18 14 15 14 11 11 10 8 14 5 2 7 2 4 8 11 12 9 9 9 11 14 12 9 12 7 9 7 4 5 13 14 18 21 21 22 21 21 21 19 18 17 17 15 13 15
28 28 28 29 29 29 28 27 28 28 27 26 23 24 24 25 25 16 14 12 9 7 7 8 5 5 4 9 5 5 13 11 10 11 13 8 4 6 6 9 13 12 14 15 14 10 12 11 8 9 7 7 7 3 11 10 5 6 5 4 7 6 8 9 11 9 14 9 11 10 6 6 10 17 20 20 23 24 21 21 20 18 18 16 17 15 15 16
28 28 28 30 29 28 28 27 27 26 27 24 24 26 24 28 23 14 12 7 5 8 11 8 3 5 3 11 8 18 25 13 13 16 11 6 7 2 9 8 10 10 11 13 7 8 10 9 6 8 7 8 11 13 10 5 3 2 2 7 3 7 6 7 12 14 14 7 11 8 4 7 17 21 23 19 20 23 22 20 20 18 18 18 17 16 16 15
27 27 28 30 29 30 27 28 28 25 26 28 26 27 22 24 17 12 6 6 9 13 8 5 4 3 3 11 6 10 0 4 7 15 12 7 7 8 11 12 12 10 7 7 6 6 8 7 9 7 9 9 10 8 7 4 6 4 6 3 6 4 7 5 5 7 13 9 12 13 7 5 15 21 22 21 22 21 20 20 20 19 21 19 18 16 16 14
27 27 28 28 28 28 29 28 27 26 27 28 28 24 22 20 13 6 9 11 7 6 6 2 5 4 2 5 8 6 1 2 3 0 6 11 12 10 6 10 6 10 9 7 9 6 5 8 4 8 9 9 8 5 5 7 7 6 2 6 5 7 3 5 2 4 10 9 10 17 11 5 16 22 23 22 23 21 19 21 21 19 19 18 17 17 17 16
27 28 27 26 28 29 29 29 28 26 26 28 26 21 18 24 10 8 6 3 4 3 4 4 2 2 10 3 7 5 8 9 8 10 8 8 16 12 8 9 7 13 10 5 6 9 6 6 5 7 6 9 8 8 10 13 11 7 3 4 6 6 6 5 5 4 6 10 10 13 15 6 24 20 22 24 22 22 21 22 22 21 20 18 17 17 19 18
27 27 26 26 26 28 28 29 29 27 24 26 21 17 12 5 0 2 0 1 3 2 2 1 3 4 5 4 5 13 8 10 14 11 6 7 8 12 8 6 8 13 7 7 4 11 5 3 5 6 11 12 14 11 10 5 3 6 5 4 5 7 8 8 7 5 7 8 10 9 11 11 23 23 21 20 21 20 20 20 18 18 17 17 17 17 17 17
27 26 25 26 27 26 27 26 28 27 23 15 11 8 4 8 4 1 2 8 6 11 16 13 8 11 17 21 15 9 11 10 8 5 7 5 6 10 8 6 6 10 10 10 7 13 4 9 11 14 13 12 10 10 6 4 5 5 4 6 9 8 8 9 9 8 5 3 10 11 11 17 21 24 22 23 20 18 19 19 18 18 18 18 17 17 18 19
25 25 25 27 27 28 26 28 27 25 22 4 6 7 9 13 15 13 18 14 13 9 13 19 18 17 15 11 14 9 12 8 3 9 11 6 7 6 7 7 7 11 12 12 7 3 6 10 14 15 7 7 9 8 6 5 6 9 7 6 9 7 9 12 11 11 5 7 6 10 10 18 20 22 21 21 22 21 21 21 20 21 20 19 21 19 19 19
27 25 27 28 28 28 29 28 28 25 14 3 5 6 4 8 3 7 7 16 26 10 16 20 13 15 15 18 20 8 9 9 20 17 9 4 6 11 6 10 10 13 10 10 6 6 11 15 18 12 6 5 7 9 9 10 11 9 8 8 7 7 7 10 12 12 5 8 9 8 13 14 22 25 24 27 24 20 22 24 24 23 21 18 19 20 19 17
27 26 28 28 28 28 29 27 28 23 5 9 7 5 8 8 5 5 4 9 15 11 8 7 8 14 17 12 13 2 9 11 12 12 3 1 6 13 8 11 11 9 11 12 13 10 9 16 17 8 9 7 8 11 13 12 11 10 9 8 10 8 6 9 13 8 9 7 5 9 13 8 20 21 25 26 26 22 25 27 25 24 24 22 23 22 20 19
25 26 27 28 27 28 30 28 24 7 10 11 6 4 9 6 7 6 8 3 8 17 1 4 6 4 7 7 1 10 12 8 7 15 8 3 4 10 8 12 11 10 14 16 16 14 16 2 8 8 11 13 11 10 12 12 12 12 13 11 9 11 12 11 10 2 3 6 9 10 10 4 12 17 15 16 18 18 19 16 15 17 20 24 23 21 21 22
25 25 27 28 25 26 30 23 4 7 9 10 2 7 8 8 8 4 7 3 3 9 4 0 1 2 3 3 3 3 6 7 13 8 2 2 4 6 11 4 7 13 11 15 14 14 15 8 14 16 14 13 13 12 14 11 11 12 16 16 14 12 11 13 12 6 5 7 4 13 5 7 8 22 23 18 15 13 14 18 19 19 18 16 18 20 19 19
24 27 26 28 26 24 26 5 3 8 10 4 5 11 9 9 9 3 2 3 7 7 3 5 2 2 2 1 2 2 3 7 4 14 10 4 4 5 4 9 5 11 12 14 15 9 11 9 8 16 16 15 16 14 12 12 10 10 15 16 16 15 12 13 9 2 6 7 7 8 11 7 4 13 20 19 19 18 15 20 20 18 17 17 17 18 19 19
26 25 26 27 25 19 10 2 4 9 7 4 8 11 10 11 7 4 1 2 2 4 2 6 2 2 3 15 3 2 0 6 6 11 12 10 6 3 8 9 5 4 6 4 3 12 8 12 11 11 16 17 14 14 13 15 11 12 7 12 13 14 16 17 11 5 6 3 4 4 8 8 8 8 17 22 22 21 19 19 17 17 18 18 18 19 19 19
28 26 26 26 27 13 5 4 8 8 7 11 11 10 12 11 6 1 2 2 2 5 5 6 6 4 10 18 4 7 4 4 2 4 12 9 7 7 9 8 9 6 6 10 17 4 12 13 15 15 12 13 16 15 13 15 13 6 6 11 14 14 15 17 10 7 6 4 9 6 4 4 5 8 12 19 18 17 20 19 18 20 20 20 20 20 20 20
30 30 27 24 26 23 3 4 3 6 7 8 11 12 10 11 1 3 1 1 1 2 2 1 8 3 18 21 10 4 9 7 8 6 2 6 9 3 7 8 5 5 7 12 13 3 8 10 14 15 11 13 12 14 11 13 13 9 6 6 10 13 15 16 9 7 9 4 11 10 4 5 4 5 8 15 18 21 20 21 22 23 22 21 20 20 21 19
27 31 28 22 17 3 1 3 6 10 10 9 10 14 13 4 2 4 2 3 6 6 13 5 7 14 15 15 16 10 13 9 8 11 3 4 4 7 5 3 7 6 9 8 10 8 3 8 14 13 15 10 8 11 13 13 13 5 10 7 7 7 11 10 7 6 5 9 12 14 7 6 5 7 10 14 16 19 18 16 16 19 19 20 21 21 20 20
30 32 28 19 3 3 4 7 9 7 5 8 12 12 6 4 2 2 0 2 5 3 7 6 14 17 17 17 14 16 13 10 14 19 10 2 4 6 3 8 5 6 5 5 7 9 11 10 6 8 15 10 6 8 13 14 14 11 6 10 6 8 2 5 4 3 7 7 8 15 7 9 9 5 6 12 19 24 23 22 21 21 22 21 18 18 20 20
30 32 30 15 6 2 1 6 9 9 11 10 10 8 5 5 3 3 4 7 4 8 9 15 12 12 15 13 5 13 12 10 15 15 15 9 4 6 8 6 5 7 9 8 6 2 10 15 9 6 11 17 13 10 8 16 15 13 7 8 10 3 3 6 3 9 9 8 8 4 8 3 9 8 7 9 12 18 23 22 24 26 25 22 20 21 19 19
30 30 29 8 6 2 7 11 9 10 9 9 7 4 5 4 1 1 4 6 1 8 6 6 13 17 14 10 7 12 3 11 15 14 18 12 12 7 7 11 5 9 9 6 4 4 9 9 12 13 7 12 12 13 7 9 12 13 12 9 9 8 7 7 6 1 2 5 9 5 7 7 4 8 12 10 10 12 19 22 24 25 25 24 23 21 19 18
30 27 12 8 7 10 10 8 9 8 7 5 7 7 3 4 1 5 4 2 5 6 8 10 13 10 8 5 8 14 10 6 13 13 14 12 13 14 7 7 7 6 7 2 11 9 9 6 16 15 8 6 13 12 11 6 11 13 11 12 12 10 7 10 5 12 10 7 6 5 4 6 7 5 3 11 10 16 18 17 20 25 27 27 25 22 21 20
31 16 8 9 4 6 7 8 8 5 0 7 6 2 3 1 0 3 4 7 5 8 10 11 10 11 7 4 6 12 10 7 15 14 12 14 11 7 11 14 16 17 5 8 3 6 13 11 3 9 6 9 13 13 11 9 9 12 12 7 6 13 6 3 5 3 3 2 2 5 6 5 8 4 4 7 4 8 17 22 22 23 20 21 17 17 17 17
17 12 8 3 5 5 5 5 3 1 6 6 5 2 0 1 0 2 2 3 3 8 12 9 6 7 7 8 9 13 8 9 11 11 7 11 8 9 7 5 11 16 14 8 8 4 5 12 7 6 17 16 13 10 12 11 11 9 9 14 13 6 7 3 3 2 3 3 8 2 5 4 4 3 6 3 2 6 13 17 18 16 15 15 17 18 19 18
14 11 8 7 7 6 10 8 7 3 4 4 2 2 3 1 0 2 2 3 3 5 6 9 5 6 7 8 9 12 12 10 9 10 8 10 3 11 13 9 13 17 15 9 7 6 3 7 3 11 14 17 17 10 13 14 6 7 13 11 4 3 4 6 6 1 3 5 5 3 11 3 3 10 4 7 6 4 14 17 20 19 17 18 18 19 20 20
10 9 6 6 4 10 11 9 10 2 2 1 1 5 3 0 0 2 1 2 2 6 5 3 1 5 6 10 9 12 13 9 10 8 9 5 5 13 12 9 10 15 17 16 3 6 11 9 8 12 11 11 15 14 11 14 14 13 13 10 12 8 13 4 3 7 4 5 2 3 5 5 6 6 1 6 10 9 10 17 19 17 17 20 20 21 21 21
7 3 5 1 14 18 16 12 5 2 1 1 3 3 1 0 1 3 4 3 1 3 3 1 4 2 5 6 9 10 12 9 9 7 8 5 8 9 12 11 14 19 19 19 7 8 7 4 7 10 10 6 7 11 15 12 14 11 6 12 8 5 6 6 7 3 6 2 4 4 3 7 6 5 7 10 14 15 8 15 18 20 20 19 19 20 20 18
9 6 5 4 18 16 17 9 1 2 1 2 3 2 2 2 3 1 4 5 3 3 0 6 3 4 3 6 9 8 8 9 9 8 6 7 7 7 13 14 14 20 19 14 8 11 6 5 4 10 5 5 6 7 14 15 12 11 8 8 9 4 2 5 2 5 5 4 5 3 5 5 7 9 15 19 16 14 11 17 18 21 23 23 22 21 19 19
6 3 5 8 19 15 15 5 2 1 1 3 2 2 6 5 5 1 1 6 2 3 1 3 3 2 2 5 5 9 6 8 8 7 7 8 9 7 11 16 14 20 18 11 10 12 7 6 7 9 9 6 7 6 14 16 14 10 9 8 11 10 6 14 9 0 4 3 3 5 9 6 10 9 13 18 18 17 15 17 17 20 22 23 21 21 20 19
6 8 6 16 15 19 10 7 4 2 1 2 6 6 5 7 4 8 6 7 5 2 2 4 2 3 2 1 4 7 8 7 6 7 7 8 8 7 13 20 14 16 13 12 13 10 7 6 4 10 7 8 11 12 7 12 14 10 10 9 11 7 5 8 9 7 5 5 3 4 2 7 9 7 12 15 15 16 15 16 18 18 21 22 21 21 21 23
5 8 14 7 16 15 5 5 6 8 5 6 7 5 7 4 5 6 7 3 4 2 2 1 3 5 1 4 5 6 9 7 5 3 9 8 9 10 15 18 19 16 13 8 12 5 17 1 6 9 9 12 17 14 12 10 11 13 9 7 9 12 13 11 8 6 7 3 7 2 4 7 11 4 7 12 16 18 14 17 21 20 19 19 20 19 20 18
5 7 7 4 15 11 8 7 6 7 7 12 12 9 7 7 8 10 9 8 3 3 2 3 3 2 5 4 3 5 7 7 10 8 5 7 7 11 15 14 18 11 8 8 10 13 8 3 5 9 7 7 8 5 5 3 6 9 9 11 11 11 8 3 6 4 6 9 8 6 8 4 13 3 6 5 15 17 10 14 21 20 17 17 18 19 19 19
6 4 5 9 10 8 8 3 4 4 9 11 11 11 12 7 7 9 9 6 4 3 4 2 4 5 4 4 6 5 8 8 3 4 5 7 7 8 8 14 17 11 10 15 14 9 4 7 5 4 5 4 7 6 2 7 6 7 9 15 14 14 11 6 7 3 8 5 6 7 5 10 14 8 9 7 6 9 11 16 18 20 19 17 15 15 17 17
3 5 6 8 7 6 6 4 5 6 6 10 11 9 12 9 9 9 8 5 12 13 4 3 4 6 4 9 7 7 8 9 7 4 3 4 6 4 7 14 11 14 17 17 12 7 4 6 5 5 2 8 10 11 15 12 10 4 11 12 15 11 12 9 6 6 11 5 8 7 7 11 18 5 8 8 4 7 9 10 15 16 18 19 17 15 14 15
2 2 6 8 8 2 8 5 9 9 5 7 3 7 10 10 8 6 10 3 10 10 6 6 7 7 4 7 4 5 6 9 10 9 4 6 5 7 9 10 14 14 15 12 14 6 2 6 8 7 12 12 15 17 18 15 16 17 13 13 16 17 13 13 11 10 5 10 8 5 8 14 15 4 8 7 1 5 8 12 13 14 15 17 17 17 16 16
3 1 2 1 1 6 13 9 11 10 9 7 3 5 7 10 11 9 9 5 11 7 6 2 5 4 6 6 4 3 4 6 8 8 5 5 7 6 8 10 11 11 19 11 11 5 5 5 7 12 19 20 18 16 15 14 13 11 12 11 13 19 16 13 11 6 9 8 9 7 8 10 10 6 7 7 7 11 13 13 17 18 16 15 16 18 19 19
1 1 1 5 3 4 6 12 15 11 9 5 2 3 8 9 9 7 6 9 8 8 7 5 4 7 7 7 5 2 2 4 6 4 4 7 9 7 5 6 3 14 13 12 9 4 5 5 7 13 18 19 17 13 12 10 8 9 8 7 8 15 17 16 8 5 10 6 9 8 9 15 11 6 9 4 4 4 6 8 10 11 15 16 17 17 19 19
1 2 2 2 2 6 8 8 7 7 6 5 2 1 3 6 9 9 7 6 7 8 7 7 8 10 9 7 4 5 4 4 8 9 6 8 9 2 4 1 7 6 8 9 8 5 5 6 13 13 12 15 12 10 13 13 11 9 8 6 4 5 14 14 10 8 5 3 5 6 7 11 8 4 2 0 3 4 6 8 13 16 16 17 18 18 19 19
1 1 1 4 6 3 5 7 6 6 4 2 1 1 3 5 7 2 6 9 9 7 6 10 8 8 7 8 7 6 4 8 9 13 13 10 9 3 1 2 3 11 11 9 6 8 6 5 8 7 9 10 7 13 18 15 14 7 5 7 7 3 2 10 10 5 5 5 4 5 5 6 8 1 2 4 5 7 5 2 8 11 14 17 18 18 19 18
1 1 2 2 3 3 5 6 7 5 3 1 3 2 2 6 6 8 7 5 3 4 9 10 10 7 5 3 6 4 7 8 10 12 11 11 10 11 8 7 6 8 8 7 8 9 4 6 7 6 9 8 10 15 15 15 9 2 6 8 7 3 2 1 1 6 4 3 6 6 9 8 7 2 7 4 6 5 6 2 5 6 13 17 17 18 17 17
Wind_Direction
351 349 347 344 342 339 336 333 329 328 330 328 325 326 328 325 321 318 316 314 313 311 310 313 313 312 314 313 313 315 318 319 304 270 202 241 177 205 181 202 185 197 212 160 129 137 167 179 188 192 171 177 215 227 221 219 230 220 215 208 256 240 251 230 218 200 140 143 160 164 180 163 189 184 206 144 146 137 148 115 102 89 91 124 125 138 145 150
349 347 343 340 337 335 331 328 330 329 325 323 323 325 322 321 319 315 314 311 311 310 311 313 313 313 313 315 313 315 322 295 283 260 230 215 154 190 213 208 181 185 182 182 161 170 160 190 190 185 178 191 178 229 168 226 199 212 190 185 242 195 229 172 211 220 120 158 165 169 183 159 204 192 188 148 149 143 121 112 118 107 108 118 134 143 150 155
345 342 343 340 335 330 329 332 328 323 320 320 322 322 319 319 318 314 311 310 310 311 310 310 314 314 314 314 312 306 326 305 266 258 255 240 200 180 197 198 192 176 173 175 186 169 174 186 177 177 195 196 201 215 201 233 204 210 207 216 233 223 244 240 229 253 162 166 156 164 176 181 176 194 176 168 152 140 136 137 128 129 134 141 143 150 154 155
345 346 341 335 331 330 330 327 325 323 318 318 321 317 319 319 314 313 308 307 309 310 311 309 314 316 313 311 306 306 290 260 267 247 242 269 184 188 181 190 181 171 177 188 174 179 189 162 169 180 178 217 206 232 222 217 216 185 219 224 234 222 247 255 230 243 229 160 144 128 163 201 180 197 185 161 142 150 152 157 149 149 146 149 154 155 157 153
346 341 336 333 334 332 329 325 320 320 322 323 318 321 321 313 312 307 310 308 308 309 308 308 314 312 313 289 299 326 287 357 262 204 252 302 180 182 180 185 173 168 175 173 170 198 180 175 178 186 198 199 223 214 239 234 221 267 223 234 244 219 210 250 235 215 214 159 151 149 154 206 197 194 180 146 153 172 168 166 150 147 150 151 157 158 157 157
344 339 335 333 333 332 326 324 323 323 325 315 316 316 315 316 309 308 305 308 306 306 305 307 314 310 307 319 299 289 308 288 296 278 30 340 179 173 174 174 174 167 166 166 177 191 189 185 180 185 200 199 204 212 220 225 214 236 254 242 233 232 233 249 236 218 196 166 166 161 187 158 182 185 178 161 161 159 153 153 154 151 157 158 155 156 161 161
342 339 335 336 334 327 327 325 324 323 316 319 323 316 313 310 311 307 307 303 301 302 301 306 310 309 298 288 271 259 227 274 320 247 80 43 51 156 161 163 162 162 171 168 185 179 202 193 187 194 195 212 222 223 241 217 221 239 248 246 246 227 232 242 238 218 199 179 186 192 143 151 187 186 161 150 149 141 148 148 153 149 147 149 156 164 163 162
341 338 336 335 330 328 326 327 323 323 318 320 318 315 316 314 310 309 303 299 298 297 302 299 301 299 292 283 186 223 181 251 245 261 269 54 88 135 149 155 157 159 171 183 175 192 186 203 196 187 211 196 190 209 221 233 232 228 242 243 251 235 223 229 230 211 183 192 193 182 188 167 182 182 150 158 143 141 144 144 146 147 149 156 159 164 161 159
339 337 336 333 331 329 329 327 324 321 322 320 316 318 315 313 308 302 300 298 296 295 296 291 278 266 83 254 242 310 252 235 266 252 297 115 120 131 142 149 162 163 180 185 190 186 175 208 212 205 198 206 221 230 227 218 237 231 234 242 248 244 214 218 214 218 195 187 180 197 210 198 186 159 167 154 143 145 145 144 147 151 155 161 165 164 162 164
342 339 335 333 330 329 329 326 324 323 323 319 318 317 317 311 307 300 299 298 294 293 292 281 259 226 200 235 226 241 262 212 258 256 172 127 133 141 163 154 165 170 171 194 188 196 197 190 205 209 255 234 219 224 230 222 241 212 234 242 249 249 238 217 219 214 219 194 167 208 212 202 173 151 183 141 143 142 148 150 153 156 161 164 167 167 166 167
340 336 335 331 330 328 327 325 323 323 321 321 319 317 315 311 306 303 301 297 290 291 284 269 220 168 178 214 169 219 249 99 63 35 76 130 141 150 172 161 168 170 184 184 197 201 204 206 195 210 229 241 206 235 228 233 241 252 255 250 238 242 240 233 214 218 209 225 188 188 219 200 168 170 166 149 150 150 150 155 157 159 162 167 170 171 166 170
338 337 334 332 330 330 330 328 322 322 321 320 318 315 315 312 306 306 299 293 290 286 273 219 188 191 222 203 227 226 245 324 32 37 43 124 169 183 171 170 170 176 175 183 206 205 207 214 211 214 212 169 239 302 249 238 245 248 244 257 267 246 239 231 228 212 197 215 184 178 209 185 170 187 157 154 153 154 153 156 159 161 164 167 171 171 168 171
338 336 335 333 331 331 329 325 324 323 321 319 316 314 314 310 306 311 299 290 286 247 206 181 166 196 163 231 233 247 288 288 306 330 311 241 268 262 198 174 179 177 181 184 197 205 205 217 217 227 249 277 233 203 246 203 230 242 239 244 263 257 247 232 232 209 195 206 184 165 209 234 181 164 157 157 155 154 154 158 161 163 166 168 172 175 171 172
339 336 334 334 332 331 327 325 324 323 320 321 317 314 315 309 303 313 294 269 257 202 186 176 161 172 186 245 274 225 249 261 290 294 262 270 228 234 213 199 189 188 188 191 199 194 202 217 214 237 271 254 262 292 261 272 258 235 254 218 229 235 251 236 226 196 198 185 186 164 209 234 161 154 156 162 157 155 159 164 164 164 167 169 172 174 178 178
338 335 334 334 332 328 327 327 325 324 321 321 321 317 311 312 302 315 292 273 187 161 173 159 174 153 207 265 268 261 250 258 266 243 239 223 199 207 205 189 198 198 195 198 190 190 207 210 204 235 247 245 257 272 280 280 286 277 261 240 262 208 264 259 221 192 195 183 193 171 234 225 159 157 162 165 162 158 160 166 167 167 170 167 171 174 179 181
337 334 332 333 330 330 327 328 327 326 324 323 324 315 305 306 307 327 339 115 123 149 149 140 187 202 304 290 257 316 85 128 231 233 231 223 216 212 187 195 191 198 187 214 206 195 204 185 211 218 246 263 249 234 253 297 271 238 213 275 244 198 236 260 230 195 194 177 191 182 218 104 153 157 162 166 163 164 162 165 168 172 174 170 171 172 178 175
337 335 332 330 331 328 328 327 327 327 326 323 323 313 311 299 328 28 103 124 133 147 170 142 144 186 272 232 319 304 286 251 249 101 174 198 211 227 193 178 187 194 196 200 197 215 208 199 194 222 229 237 223 200 216 242 259 261 164 212 244 234 227 236 289 212 189 181 194 198 215 168 159 161 163 168 166 165 166 168 171 175 178 176 174 174 174 177
335 335 332 329 330 330 327 327 327 329 328 322 321 306 301 296 311 133 79 87 143 183 213 289 182 209 265 332 286 272 335 314 343 322 285 191 192 214 226 182 177 182 180 199 207 201 196 214 189 234 220 216 205 188 194 217 213 225 210 241 266 255 215 221 196 232 187 205 207 213 218 151 159 161 166 171 171 168 170 171 174 177 178 177 176 177 178 179
333 330 331 329 330 330 327 326 328 327 331 320 312 318 308 259 216 193 124 163 308 357 20 162 187 149 230 258 270 294 305 315 305 288 279 172 185 194 214 213 172 159 182 185 201 195 171 216 193 223 224 211 211 206 213 220 223 214 206 218 239 233 247 234 240 243 179 182 218 214 219 151 165 161 169 171 173 173 175 176 175 177 175 177 176 178 183 187
332 329 330 331 333 329 328 325 326 327 333 336 346 345 321 356 21 331 288 308 250 229 241 249 221 262 289 288 285 286 305 282 281 270 289 230 177 170 196 197 183 178 170 196 175 204 139 201 206 214 216 216 218 214 208 220 244 260 228 228 245 242 258 259 245 234 203 179 216 217 220 156 168 167 167 172 175 176 177 178 178 178 176 179 180 181 183 189
330 331 332 333 335 333 328 328 325 326 332 307 302 5 19 4 353 342 327 290 256 248 241 246 230 236 245 270 278 325 351 324 227 286 273 291 217 143 193 175 185 196 194 186 179 172 184 215 228 222 213 208 216 218 210 240 250 244 252 243 243 237 244 241 246 247 185 203 245 225 217 162 169 169 167 173 175 180 183 181 180 181 178 179 179 182 185 190
332 331 334 336 336 335 330 328 326 322 321 194 6 18 14 9 317 271 324 315 316 280 236 245 244 249 246 251 264 299 303 286 304 285 281 207 203 185 185 190 187 201 185 173 180 174 206 217 224 210 197 198 202 211 217 218 236 248 241 246 256 250 259 272 257 251 211 199 240 216 217 172 179 173 171 174 180 187 187 181 183 179 178 178 180 183 186 186
332 330 335 336 338 334 330 325 324 319 324 2 354 331 2 321 319 315 299 280 267 288 260 252 240 241 254 253 259 214 240 229 250 271 248 343 189 202 172 195 196 196 189 181 189 183 204 231 222 189 193 209 208 203 208 219 230 235 242 240 236 240 226 256 257 252 236 213 207 213 210 185 177 178 177 183 180 184 187 188 183 178 175 177 181 183 184 184
331 330 331 334 338 335 326 325 313 324 358 331 279 347 321 317 327 346 342 276 303 314 175 255 203 227 255 243 247 189 221 241 205 260 256 194 230 189 209 199 194 201 202 190 194 203 211 225 177 185 198 207 217 205 200 204 220 231 233 234 238 238 232 230 258 301 316 258 230 197 208 182 175 170 185 192 192 186 188 183 184 186 182 179 181 180 182 183
330 331 330 331 339 336 323 321 16 347 323 320 304 325 321 319 330 24 344 300 277 263 206 181 154 222 256 176 214 265 198 256 233 244 249 197 206 174 217 182 199 215 203 193 198 217 235 226 161 189 202 206 214 215 208 193 213 223 234 230 232 236 247 249 256 282 294 303 271 194 201 222 198 177 181 181 189 190 184 183 188 187 188 181 176 182 186 186
331 333 329 330 335 342 318 0 348 343 324 290 294 319 316 317 318 42 357 360 314 273 281 18 215 21 280 28 177 241 242 254 204 239 234 239 275 239 162 226 197 210 202 185 202 216 226 204 189 185 195 208 211 220 210 199 209 210 225 227 228 240 248 258 264 235 257 248 277 208 188 231 209 191 181 180 185 188 185 193 190 184 182 181 181 183 184 184
332 331 332 330 331 352 5 311 329 320 342 313 308 314 310 312 316 11 56 297 324 300 34 336 325 11 339 334 284 173 70 283 208 223 228 230 231 254 218 207 203 228 182 176 180 222 193 200 207 206 195 202 209 216 213 202 203 223 213 224 233 236 243 251 254 234 248 261 279 271 215 179 213 208 190 178 182 184 188 193 188 186 184 184 184 184 185 185
331 331 331 334 324 343 203 289 329 326 265 265 291 306 301 307 318 52 85 7 308 329 18 331 21 267 339 326 351 187 225 312 314 268 199 214 182 266 256 197 206 192 191 183 221 154 186 198 201 210 208 201 210 211 200 204 213 215 187 201 227 235 242 251 248 252 253 300 280 295 228 246 216 202 192 182 176 182 190 189 188 188 188 187 186 185 186 186
331 330 331 333 325 310 192 194 273 266 253 290 302 302 309 303 352 96 139 143 22 32 203 157 320 6 341 340 10 23 324 321 310 316 222 218 199 175 233 226 203 209 227 209 224 126 203 199 194 216 211 215 213 211 206 197 219 218 211 200 212 223 242 243 241 239 259 254 258 256 182 236 270 237 170 189 181 184 189 192 189 187 189 189 187 187 186 185
328 326 329 336 328 355 116 223 218 243 275 295 302 305 301 299 45 23 34 247 4 340 360 335 358 337 338 348 338 354 339 326 325 300 265 201 209 213 267 274 219 220 241 243 236 226 264 191 188 200 221 215 201 213 204 205 219 178 204 234 244 229 231 245 221 206 243 239 246 247 208 214 261 254 184 179 200 181 190 195 191 191 191 191 190 185 184 186
330 325 325 336 309 292 313 312 272 270 290 304 313 309 320 45 95 100 16 281 329 22 331 27 349 346 356 0 333 350 342 343 357 353 326 181 223 204 185 238 221 240 249 261 254 234 237 261 220 207 205 219 190 202 202 209 209 197 186 208 243 276 295 277 251 142 214 237 238 242 199 190 239 279 253 214 188 184 181 184 185 190 194 194 192 189 187 186
330 324 323 332 247 279 170 260 278 315 309 318 318 345 27 29 9 83 253 354 288 345 18 334 350 347 332 343 352 342 337 337 6 359 346 310 217 185 198 211 177 212 235 222 260 221 237 233 234 237 208 208 204 219 213 203 205 202 188 190 200 240 190 244 218 222 213 209 247 184 159 229 236 218 226 195 219 195 184 181 185 188 191 192 191 189 187 187
330 324 318 309 218 189 235 247 284 289 309 323 346 12 60 87 38 306 320 3 286 2 343 350 338 334 327 330 350 340 335 6 350 7 343 345 348 234 197 206 174 199 219 210 250 193 244 235 235 237 237 208 203 203 186 210 203 194 198 188 181 204 207 226 241 267 246 242 231 210 179 221 223 266 224 226 202 192 195 192 184 182 187 189 191 190 187 186
328 321 323 294 276 244 260 266 268 283 312 328 15 0 71 64 271 25 348 39 315 352 332 343 329 323 334 325 343 8 347 27 10 356 357 351 13 8 323 230 203 221 233 161 207 206 244 223 225 217 222 172 209 211 192 193 190 201 198 191 201 197 184 201 189 208 210 209 255 197 186 214 174 240 226 210 197 177 187 196 189 188 188 189 190 186 184 185
323 306 287 299 296 263 226 248 265 255 51 24 11 57 79 244 346 346 352 348 351 339 340 338 329 330 350 339 6 37 37 321 9 359 3 2 359 16 4 6 9 348 299 254 181 203 229 240 261 200 240 173 216 209 191 173 195 204 200 184 188 220 126 163 206 151 204 159 212 232 203 183 181 235 236 209 184 180 182 189 193 194 189 188 181 183 186 188
323 334 319 277 317 283 300 294 262 84 57 47 45 358 246 188 256 343 44 327 351 340 328 339 340 352 341 357 358 1 19 334 4 8 350 359 333 23 4 27 19 36 30 13 333 298 206 243 203 222 209 217 216 195 207 171 204 188 186 209 212 133 176 231 316 259 110 114 238 213 286 254 304 321 241 271 237 186 183 186 191 193 188 178 181 185 188 189
341 335 352 327 315 299 316 330 327 36 76 82 71 296 252 22 202 123 321 26 317 330 333 348 354 8 345 349 337 348 350 345 23 12 344 329 349 19 14 14 28 13 22 360 299 250 288 276 233 209 220 218 214 206 208 202 151 153 202 210 120 143 125 173 212 308 193 164 250 186 223 298 183 255 275 235 248 214 179 186 192 188 176 180 187 189 190 189
323 308 266 264 258 342 329 318 317 5 88 77 191 254 267 255 218 149 221 32 355 2 315 327 281 13 347 344 328 347 352 360 351 17 332 8 321 32 30 349 15 13 351 347 252 332 345 298 264 250 240 224 208 206 235 223 193 194 206 138 181 170 208 194 144 222 187 211 231 290 211 242 188 249 288 236 238 223 180 191 188 187 180 184 188 192 193 192
306 300 317 356 9 347 327 321 325 206 82 55 224 319 308 326 246 21 65 20 130 312 313 1 342 52 2 318 327 345 346 345 354 357 343 20 350 39 37 7 340 356 353 345 350 319 310 264 300 272 248 243 214 187 213 221 216 212 125 180 164 149 196 161 203 151 135 239 170 287 190 234 207 207 200 228 227 230 172 185 187 186 185 188 190 190 190 189
359 359 299 356 354 335 324 313 247 88 106 234 224 206 264 338 360 351 85 53 15 5 277 334 19 335 340 316 342 332 352 336 355 337 347 330 332 4 27 16 352 342 345 336 327 334 308 4 272 280 278 308 239 190 207 207 202 198 177 186 184 205 186 142 260 180 167 169 188 172 234 274 247 213 212 223 220 224 189 178 189 187 187 188 189 189 187 186
299 206 268 357 339 334 332 352 57 89 184 258 186 264 354 8 331 334 22 62 21 166 26 338 337 317 288 343 335 358 327 356 350 342 331 6 19 328 28 8 352 347 335 342 360 351 338 2 313 306 334 267 261 240 211 205 208 205 183 188 190 167 137 191 238 181 168 127 202 171 239 258 249 221 215 219 222 217 205 178 185 190 188 188 190 187 183 185
339 339 304 334 334 343 352 13 359 294 101 9 20 13 1 347 351 341 352 28 23 339 71 327 329 329 330 306 7 348 338 338 358 343 11 345 354 344 338 347 353 346 347 340 336 318 339 273 254 282 249 261 264 269 299 222 206 214 174 202 192 176 149 175 204 223 185 217 157 160 179 271 241 210 211 221 226 217 206 171 181 189 191 189 189 185 185 184
347 275 290 306 352 338 2 43 2 3 350 19 6 33 345 354 342 1 351 24 340 57 330 320 353 328 23 3 343 338 333 324 339 22 327 331 335 343 333 337 349 343 341 326 312 323 332 258 304 277 275 257 256 268 278 284 220 210 209 172 179 196 190 192 176 180 182 189 218 270 255 255 273 190 214 215 221 221 207 168 180 186 190 189 187 186 185 187
296 288 318 13 353 333 66 42 355 338 350 357 1 357 8 342 360 1 350 342 17 336 1 335 292 44 321 331 312 319 349 302 58 15 314 338 314 334 325 339 344 328 339 336 329 344 346 10 10 303 325 301 312 347 324 270 218 215 200 199 192 197 182 145 137 136 182 210 184 169 233 268 265 340 290 229 223 225 183 172 178 184 187 186 188 184 182 185
282 262 261 326 350 352 53 348 18 343 357 358 347 352 354 0 1 349 331 336 344 322 340 344 344 330 331 5 354 1 351 358 341 267 297 328 302 313 322 337 331 316 322 309 314 335 280 284 324 310 338 277 219 208 210 351 343 321 225 202 196 183 174 130 183 173 197 243 172 192 237 253 268 317 317 316 217 193 169 168 178 180 181 185 186 182 181 178
9 336 325 327 1 344 58 2 55 15 6 8 352 343 343 343 346 333 6 347 15 349 336 336 350 357 10 9 358 1 340 335 332 290 333 291 308 316 327 328 322 322 310 317 334 339 294 289 270 284 310 271 279 283 278 285 276 266 301 234 195 182 175 178 123 146 195 201 186 218 180 244 265 305 298 312 117 136 151 158 167 180 184 181 176 177 179 177
286 38 340 341 318 62 4 14 11 9 5 335 322 334 333 330 341 322 25 338 352 334 330 29 4 2 353 359 357 330 347 330 315 304 306 313 309 306 326 318 326 304 339 353 349 324 318 302 282 290 301 284 283 274 277 276 268 273 274 276 207 187 178 182 186 207 167 121 211 252 206 224 248 275 279 284 140 117 155 163 167 173 176 176 176 174 173 177
29 343 52 68 267 324 340 349 346 331 311 346 324 312 336 354 2 358 344 3 332 345 348 344 358 337 346 339 331 327 338 327 315 320 1 295 310 317 330 334 295 6 358 345 333 329 316 292 293 328 311 304 289 274 266 263 257 260 270 287 231 192 185 182 200 191 151 172 196 233 213 223 242 228 238 241 192 163 165 169 176 177 174 172 172 173 175 179
173 305 32 34 359 323 299 288 301 291 299 348 290 352 358 348 342 1 345 320 331 326 333 310 334 348 340 341 342 301 343 328 311 320 324 313 316 344 320 338 324 2 342 332 336 320 314 234 306 324 307 298 290 293 309 314 305 275 275 288 310 209 197 191 181 183 186 186 191 194 181 222 221 221 230 233 204 186 165 168 158 158 170 172 173 174 177 177
358 54 320 330 273 293 273 281 282 299 305 313 317 43 358 339 320 330 336 328 316 304 337 339 337 338 330 324 319 304 293 306 311 314 312 316 314 296 304 203 285 304 333 317 324 327 343 293 325 321 315 294 284 307 327 331 326 304 291 295 308 289 210 195 181 192 197 241 195 170 171 232 257 216 204 289 120 97 86 140 169 172 171 172 174 178 180 179
251 169 135 317 315 294 301 315 306 289 291 280 196 316 336 309 288 205 264 266 266 294 335 314 308 311 313 313 298 285 334 326 309 300 303 300 290 279 107 189 302 305 320 321 319 314 314 286 314 314 321 299 308 349 325 322 311 294 301 354 14 53 228 205 196 168 162 214 203 127 174 243 272 355 14 72 83 91 91 117 168 174 171 172 177 183 182 182
58 260 115 133 277 312 311 294 302 319 282 235 328 322 321 302 348 32 325 305 306 333 305 299 297 295 295 320 294 292 312 296 305 299 291 282 271 273 242 249 259 271 280 286 297 294 296 298 311 323 317 263 297 322 312 308 321 6 12 0 331 25 242 349 205 172 182 174 156 177 220 218 215 182 98 68 88 76 74 107 140 180 179 171 178 183 186 185